| time (UTC) | temp F | wind direction | speed MPH | gust MPH | rain 1hr in | rain 24hr in | rain mn in | humidity % | barometer mb |
| 20260507225053 | 74 | 29 | 3.0 | 9.0 | 0.00 | 0.00 | 0.00 | 72 | 1014.6 |
| 20260507224556 | 74 | 17 | 3.0 | 9.0 | 0.00 | 0.00 | 0.00 | 72 | 1014.6 |
| 20260507224057 | 75 | 57 | 4.0 | 10.0 | 0.00 | 0.00 | 0.00 | 72 | 1014.5 |
| 20260507223553 | 75 | 86 | 3.0 | 10.0 | 0.00 | 0.00 | 0.00 | 72 | 1014.5 |
| 20260507223052 | 75 | 24 | 4.0 | 13.0 | 0.00 | 0.00 | 0.00 | 71 | 1014.6 |
| 20260507222553 | 75 | 342 | 5.0 | 13.0 | 0.00 | 0.00 | 0.00 | 71 | 1014.6 |
| 20260507222052 | 76 | 38 | 5.0 | 12.0 | 0.00 | 0.00 | 0.00 | 72 | 1014.5 |
| 20260507221558 | 76 | 42 | 4.0 | 9.0 | 0.00 | 0.00 | 0.00 | 71 | 1014.5 |
| 20260507221051 | 76 | 33 | 3.0 | 9.0 | 0.00 | 0.00 | 0.00 | 73 | 1014.6 |
| 20260507220552 | 76 | 29 | 1.0 | 8.0 | 0.00 | 0.00 | 0.00 | 72 | 1014.4 |
| 20260507220059 | 76 | 74 | 2.0 | 9.0 | 0.00 | 0.00 | 0.00 | 72 | 1014.3 |
| 20260507215556 | 76 | 81 | 2.0 | 10.0 | 0.00 | 0.00 | 0.00 | 73 | 1014.3 |
| 20260507215055 | 76 | 32 | 5.0 | 10.0 | 0.00 | 0.00 | 0.00 | 72 | 1014.1 |
| 20260507214557 | 76 | 72 | 4.0 | 9.0 | 0.00 | 0.00 | 0.00 | 72 | 1014.1 |
| 20260507214052 | 75 | 37 | 6.0 | 9.0 | 0.00 | 0.00 | 0.00 | 72 | 1014.0 |
| 20260507213553 | 75 | 90 | 3.0 | 12.0 | 0.00 | 0.00 | 0.00 | 73 | 1013.9 |
| 20260507213101 | 75 | 89 | 5.0 | 12.0 | 0.00 | 0.00 | 0.00 | 72 | 1014.2 |
| 20260507212552 | 75 | 67 | 6.0 | 12.0 | 0.00 | 0.00 | 0.00 | 71 | 1014.3 |
| 20260507212053 | 75 | 100 | 5.0 | 11.0 | 0.00 | 0.00 | 0.00 | 72 | 1014.2 |
| 20260507211605 | 75 | 51 | 4.0 | 9.0 | 0.00 | 0.00 | 0.00 | 72 | 1014.3 |
| 20260507211052 | 76 | 52 | 3.0 | 14.0 | 0.00 | 0.00 | 0.00 | 72 | 1014.3 |
| 20260507210557 | 76 | 34 | 4.0 | 14.0 | 0.00 | 0.00 | 0.00 | 71 | 1014.3 |
| 20260507210112 | 76 | 26 | 5.0 | 14.0 | 0.00 | 0.00 | 0.00 | 72 | 1014.3 |
| 20260507205553 | 76 | 62 | 5.0 | 11.0 | 0.00 | 0.00 | 0.00 | 72 | 1014.4 |
| 20260507205053 | 76 | 65 | 4.0 | 11.0 | 0.00 | 0.00 | 0.00 | 72 | 1014.6 |
| 20260507204601 | 76 | 5 | 3.0 | 11.0 | 0.00 | 0.00 | 0.00 | 72 | 1014.7 |
| 20260507204053 | 76 | 38 | 5.0 | 11.0 | 0.00 | 0.00 | 0.00 | 72 | 1014.8 |
| 20260507203553 | 76 | 84 | 4.0 | 15.0 | 0.00 | 0.00 | 0.00 | 72 | 1014.9 |
| 20260507203125 | 76 | 57 | 6.0 | 15.0 | 0.00 | 0.00 | 0.00 | 72 | 1015.0 |
| 20260507202552 | 75 | 315 | 5.0 | 13.0 | 0.00 | 0.00 | 0.00 | 73 | 1015.2 |
| 20260507202057 | 75 | 49 | 3.0 | 13.0 | 0.00 | 0.00 | 0.00 | 73 | 1015.3 |
| 20260507201555 | 75 | 76 | 5.0 | 12.0 | 0.00 | 0.00 | 0.00 | 72 | 1015.3 |
| 20260507201053 | 75 | 44 | 4.0 | 12.0 | 0.00 | 0.00 | 0.00 | 73 | 1015.3 |
| 20260507200554 | 75 | 36 | 5.0 | 12.0 | 0.00 | 0.00 | 0.00 | 72 | 1015.3 |
| 20260507195552 | 75 | 34 | 3.0 | 11.0 | 0.00 | 0.00 | 0.00 | 72 | 1015.3 |
| 20260507195057 | 75 | 45 | 4.0 | 12.0 | 0.00 | 0.00 | 0.00 | 72 | 1015.3 |
| 20260507194619 | 75 | 52 | 5.0 | 13.0 | 0.00 | 0.00 | 0.00 | 73 | 1015.3 |
| 20260507194052 | 75 | 23 | 5.0 | 13.0 | 0.00 | 0.00 | 0.00 | 72 | 1015.3 |
| 20260507193553 | 74 | 44 | 5.0 | 14.0 | 0.00 | 0.00 | 0.00 | 73 | 1015.3 |
| 20260507193058 | 74 | 121 | 4.0 | 15.0 | 0.00 | 0.00 | 0.00 | 75 | 1015.5 |
| 20260507192552 | 73 | 76 | 5.0 | 15.0 | 0.00 | 0.00 | 0.00 | 74 | 1015.6 |
| 20260507192053 | 73 | 59 | 5.0 | 15.0 | 0.00 | 0.00 | 0.00 | 74 | 1015.6 |
| 20260507191553 | 73 | 51 | 4.0 | 11.0 | 0.00 | 0.00 | 0.00 | 74 | 1015.7 |
| 20260507191055 | 73 | 59 | 5.0 | 13.0 | 0.00 | 0.00 | 0.00 | 76 | 1015.6 |
| 20260507190552 | 72 | 35 | 6.0 | 13.0 | 0.00 | 0.00 | 0.00 | 75 | 1015.7 |
| 20260507190059 | 71 | 40 | 5.0 | 12.0 | 0.00 | 0.00 | 0.00 | 76 | 1015.8 |
| 20260507185552 | 71 | 52 | 4.0 | 11.0 | 0.00 | 0.00 | 0.00 | 76 | 1015.9 |
| 20260507185052 | 71 | 76 | 5.0 | 11.0 | 0.00 | 0.00 | 0.00 | 76 | 1016.0 |
| 20260507184554 | 70 | 5 | 3.0 | 9.0 | 0.00 | 0.00 | 0.00 | 77 | 1016.1 |
| 20260507184052 | 69 | 69 | 3.0 | 8.0 | 0.00 | 0.00 | 0.00 | 78 | 1016.4 |
| 20260507183553 | 69 | 90 | 3.0 | 8.0 | 0.00 | 0.00 | 0.00 | 79 | 1016.5 |
| 20260507183056 | 69 | 71 | 4.0 | 12.0 | 0.00 | 0.00 | 0.00 | 78 | 1016.5 |
| 20260507182553 | 68 | 53 | 5.0 | 13.0 | 0.00 | 0.00 | 0.00 | 78 | 1016.7 |
| 20260507182053 | 68 | 89 | 6.0 | 13.0 | 0.00 | 0.00 | 0.00 | 78 | 1016.7 |
| 20260507181553 | 68 | 20 | 3.0 | 11.0 | 0.00 | 0.00 | 0.00 | 79 | 1016.9 |
| 20260507181053 | 68 | 28 | 2.0 | 11.0 | 0.00 | 0.00 | 0.00 | 79 | 1016.9 |
| 20260507180553 | 68 | 249 | 4.0 | 12.0 | 0.00 | 0.00 | 0.00 | 78 | 1017.0 |
| 20260507180053 | 68 | 304 | 3.0 | 12.0 | 0.00 | 0.00 | 0.00 | 78 | 1017.1 |
| 20260507175552 | 68 | 324 | 5.0 | 12.0 | 0.00 | 0.00 | 0.00 | 78 | 1017.1 |
| 20260507175053 | 68 | 76 | 6.0 | 12.0 | 0.00 | 0.00 | 0.00 | 78 | 1017.1 |
| 20260507174558 | 68 | 44 | 4.0 | 16.0 | 0.00 | 0.00 | 0.00 | 79 | 1017.3 |
| 20260507174053 | 68 | 59 | 5.0 | 16.0 | 0.00 | 0.00 | 0.00 | 80 | 1017.3 |
| 20260507173552 | 67 | 36 | 6.0 | 16.0 | 0.00 | 0.00 | 0.00 | 80 | 1017.3 |
| 20260507173128 | 67 | 73 | 5.0 | 15.0 | 0.00 | 0.00 | 0.00 | 80 | 1017.2 |
| 20260507172553 | 67 | 47 | 6.0 | 15.0 | 0.00 | 0.00 | 0.00 | 80 | 1017.2 |
| 20260507172052 | 67 | 40 | 5.0 | 13.0 | 0.00 | 0.00 | 0.00 | 80 | 1017.3 |
| 20260507171558 | 67 | 71 | 5.0 | 13.0 | 0.00 | 0.00 | 0.00 | 80 | 1017.2 |
| 20260507171053 | 67 | 63 | 5.0 | 13.0 | 0.00 | 0.00 | 0.00 | 80 | 1017.3 |
| 20260507170552 | 67 | 50 | 5.0 | 13.0 | 0.00 | 0.00 | 0.00 | 80 | 1017.4 |
| 20260507170105 | 67 | 26 | 4.0 | 13.0 | 0.00 | 0.00 | 0.00 | 80 | 1017.4 |
| 20260507165553 | 67 | 35 | 5.0 | 13.0 | 0.00 | 0.00 | 0.00 | 81 | 1017.5 |
| 20260507165054 | 66 | 14 | 6.0 | 13.0 | 0.00 | 0.00 | 0.00 | 81 | 1017.6 |
| 20260507164559 | 66 | 11 | 6.0 | 12.0 | 0.00 | 0.00 | 0.00 | 81 | 1017.4 |
| 20260507164053 | 66 | 40 | 6.0 | 12.0 | 0.00 | 0.00 | 0.00 | 81 | 1017.3 |
| 20260507163552 | 66 | 344 | 5.0 | 12.0 | 0.00 | 0.00 | 0.00 | 82 | 1017.2 |
| 20260507163059 | 65 | 33 | 4.0 | 16.0 | 0.00 | 0.00 | 0.00 | 82 | 1017.2 |
| 20260507162555 | 65 | 22 | 9.0 | 16.0 | 0.00 | 0.00 | 0.00 | 82 | 1017.3 |
| 20260507162053 | 65 | 56 | 5.0 | 16.0 | 0.00 | 0.00 | 0.00 | 83 | 1017.3 |
| 20260507161613 | 65 | 355 | 6.0 | 15.0 | 0.00 | 0.00 | 0.00 | 83 | 1017.3 |
| 20260507161052 | 65 | 331 | 5.0 | 14.0 | 0.00 | 0.00 | 0.00 | 83 | 1017.3 |
| 20260507160554 | 64 | 38 | 6.0 | 12.0 | 0.00 | 0.00 | 0.00 | 84 | 1017.3 |
| 20260507155552 | 64 | 5 | 5.0 | 12.0 | 0.00 | 0.00 | 0.00 | 85 | 1017.4 |
| 20260507155052 | 63 | 319 | 4.0 | 12.0 | 0.00 | 0.00 | 0.00 | 85 | 1017.4 |
| 20260507154558 | 63 | 22 | 5.0 | 11.0 | 0.00 | 0.00 | 0.00 | 85 | 1017.4 |
| 20260507154052 | 63 | 34 | 3.0 | 12.0 | 0.00 | 0.00 | 0.00 | 85 | 1017.4 |
| 20260507153552 | 63 | 329 | 3.0 | 12.0 | 0.00 | 0.00 | 0.00 | 85 | 1017.4 |
| 20260507153057 | 63 | 344 | 4.0 | 11.0 | 0.00 | 0.00 | 0.00 | 85 | 1017.4 |
| 20260507152553 | 63 | 65 | 5.0 | 11.0 | 0.00 | 0.00 | 0.00 | 85 | 1017.6 |
| 20260507152053 | 63 | 62 | 4.0 | 10.0 | 0.00 | 0.00 | 0.00 | 85 | 1017.5 |
| 20260507151555 | 63 | 36 | 3.0 | 12.0 | 0.00 | 0.00 | 0.00 | 85 | 1017.2 |
| 20260507151051 | 63 | 84 | 6.0 | 13.0 | 0.00 | 0.00 | 0.00 | 85 | 1017.1 |
| 20260507150552 | 63 | 42 | 6.0 | 13.0 | 0.00 | 0.00 | 0.00 | 85 | 1017.1 |
| 20260507150057 | 63 | 46 | 4.0 | 14.0 | 0.00 | 0.00 | 0.00 | 85 | 1017.1 |
| 20260507145552 | 63 | 24 | 7.0 | 14.0 | 0.00 | 0.00 | 0.00 | 85 | 1017.2 |
| 20260507145051 | 63 | 5 | 6.0 | 12.0 | 0.00 | 0.00 | 0.00 | 86 | 1017.0 |
| 20260507144608 | 63 | 90 | 6.0 | 12.0 | 0.00 | 0.00 | 0.00 | 86 | 1016.8 |
| 20260507144052 | 63 | 67 | 2.0 | 14.0 | 0.00 | 0.00 | 0.00 | 87 | 1016.7 |
| 20260507143552 | 63 | 39 | 5.0 | 14.0 | 0.00 | 0.00 | 0.00 | 87 | 1016.8 |
| 20260507143103 | 62 | 38 | 5.0 | 17.0 | 0.00 | 0.00 | 0.00 | 87 | 1016.7 |
| 20260507142552 | 62 | 57 | 7.0 | 17.0 | 0.00 | 0.00 | 0.00 | 87 | 1016.8 |
| 20260507142053 | 62 | 86 | 7.0 | 17.0 | 0.00 | 0.00 | 0.00 | 87 | 1016.6 |
| 20260507141600 | 62 | 54 | 4.0 | 17.0 | 0.00 | 0.00 | 0.00 | 88 | 1016.3 |
| 20260507141053 | 62 | 99 | 4.0 | 17.0 | 0.00 | 0.00 | 0.00 | 88 | 1016.1 |
| 20260507140554 | 62 | 78 | 8.0 | 18.0 | 0.00 | 0.00 | 0.00 | 88 | 1016.1 |
| 20260507140056 | 62 | 9 | 7.0 | 18.0 | 0.00 | 0.00 | 0.00 | 88 | 1016.0 |
| 20260507135553 | 62 | 65 | 7.0 | 18.0 | 0.00 | 0.00 | 0.00 | 89 | 1016.1 |
| 20260507135053 | 62 | 96 | 5.0 | 16.0 | 0.00 | 0.00 | 0.00 | 89 | 1016.1 |
| 20260507134559 | 62 | 298 | 6.0 | 13.0 | 0.00 | 0.00 | 0.00 | 89 | 1016.4 |
| 20260507134051 | 62 | 25 | 4.0 | 13.0 | 0.00 | 0.00 | 0.00 | 89 | 1016.6 |
| 20260507133552 | 62 | 332 | 3.0 | 13.0 | 0.00 | 0.00 | 0.00 | 89 | 1016.7 |
| 20260507133142 | 62 | 343 | 4.0 | 13.0 | 0.00 | 0.00 | 0.00 | 89 | 1016.7 |
| 20260507132551 | 62 | 17 | 5.0 | 17.0 | 0.00 | 0.00 | 0.00 | 89 | 1016.6 |
| 20260507132051 | 62 | 327 | 4.0 | 17.0 | 0.00 | 0.00 | 0.00 | 89 | 1016.5 |
| 20260507131558 | 62 | 32 | 5.0 | 14.0 | 0.00 | 0.00 | 0.00 | 88 | 1016.4 |
| 20260507131052 | 62 | 86 | 7.0 | 14.0 | 0.00 | 0.00 | 0.00 | 88 | 1016.6 |
| 20260507130556 | 62 | 321 | 4.0 | 11.0 | 0.00 | 0.00 | 0.00 | 88 | 1016.5 |
| 20260507130103 | 63 | 344 | 4.0 | 17.0 | 0.00 | 0.00 | 0.00 | 88 | 1016.5 |
| 20260507125552 | 63 | 352 | 7.0 | 17.0 | 0.00 | 0.00 | 0.00 | 88 | 1016.6 |
| 20260507125052 | 63 | 66 | 5.0 | 16.0 | 0.00 | 0.00 | 0.00 | 88 | 1016.3 |
| 20260507124606 | 63 | 24 | 4.0 | 16.0 | 0.00 | 0.00 | 0.00 | 88 | 1016.2 |
| 20260507124053 | 63 | 57 | 6.0 | 16.0 | 0.00 | 0.00 | 0.00 | 87 | 1016.1 |
| 20260507123553 | 63 | 40 | 6.0 | 13.0 | 0.00 | 0.00 | 0.00 | 87 | 1016.1 |
| 20260507123053 | 63 | 44 | 4.0 | 12.0 | 0.00 | 0.00 | 0.00 | 87 | 1016.3 |
| 20260507122552 | 63 | 344 | 4.0 | 13.0 | 0.00 | 0.00 | 0.00 | 87 | 1016.6 |
| 20260507122052 | 63 | 35 | 6.0 | 13.0 | 0.00 | 0.00 | 0.00 | 87 | 1016.7 |
| 20260507121553 | 63 | 44 | 6.0 | 15.0 | 0.00 | 0.00 | 0.00 | 87 | 1016.5 |
| 20260507121052 | 63 | 56 | 2.0 | 15.0 | 0.00 | 0.00 | 0.00 | 87 | 1016.6 |
| 20260507120551 | 63 | 41 | 3.0 | 11.0 | 0.00 | 0.00 | 0.00 | 87 | 1016.4 |
| 20260507120052 | 63 | 336 | 4.0 | 11.0 | 0.00 | 0.00 | 0.00 | 86 | 1016.2 |
| 20260507115552 | 63 | 24 | 2.0 | 10.0 | 0.00 | 0.00 | 0.00 | 86 | 1016.0 |
| 20260507115052 | 63 | 350 | 2.0 | 7.0 | 0.00 | 0.00 | 0.00 | 86 | 1016.0 |
| 20260507114609 | 63 | 352 | 2.0 | 11.0 | 0.00 | 0.00 | 0.00 | 86 | 1015.6 |
| 20260507114052 | 63 | 22 | 2.0 | 11.0 | 0.00 | 0.00 | 0.00 | 86 | 1015.5 |
| 20260507113553 | 63 | 45 | 4.0 | 11.0 | 0.00 | 0.00 | 0.00 | 86 | 1015.3 |
| 20260507113054 | 64 | 9 | 5.0 | 11.0 | 0.00 | 0.00 | 0.00 | 86 | 1015.3 |
| 20260507112552 | 64 | 329 | 4.0 | 11.0 | 0.00 | 0.00 | 0.00 | 86 | 1015.4 |
| 20260507112057 | 64 | 360 | 2.0 | 12.0 | 0.00 | 0.00 | 0.00 | 86 | 1015.4 |
| 20260507111555 | 64 | 21 | 4.0 | 12.0 | 0.00 | 0.00 | 0.00 | 86 | 1015.0 |
| 20260507111126 | 64 | 64 | 3.0 | 11.0 | 0.00 | 0.00 | 0.00 | 86 | 1015.2 |
| 20260507110555 | 64 | 47 | 2.0 | 12.0 | 0.00 | 0.00 | 0.00 | 86 | 1015.2 |
| 20260507110054 | 64 | 13 | 3.0 | 12.0 | 0.00 | 0.00 | 0.00 | 86 | 1015.2 |
| 20260507105552 | 64 | 90 | 2.0 | 11.0 | 0.00 | 0.00 | 0.00 | 86 | 1015.3 |
| 20260507105053 | 64 | 76 | 3.0 | 10.0 | 0.00 | 0.00 | 0.00 | 86 | 1015.1 |
| 20260507104553 | 64 | 10 | 3.0 | 13.0 | 0.00 | 0.00 | 0.00 | 86 | 1015.2 |
| 20260507104053 | 64 | 51 | 4.0 | 13.0 | 0.00 | 0.00 | 0.00 | 86 | 1014.9 |
| 20260507103553 | 64 | 27 | 2.0 | 10.0 | 0.00 | 0.00 | 0.00 | 86 | 1015.2 |
| 20260507103056 | 64 | 67 | 1.0 | 8.0 | 0.00 | 0.00 | 0.00 | 86 | 1015.2 |
| 20260507102552 | 64 | 39 | 2.0 | 8.0 | 0.00 | 0.00 | 0.00 | 86 | 1014.7 |
| 20260507102053 | 64 | 41 | 3.0 | 11.0 | 0.00 | 0.00 | 0.00 | 86 | 1014.6 |
| 20260507101554 | 64 | 39 | 4.0 | 11.0 | 0.00 | 0.00 | 0.00 | 85 | 1015.1 |
| 20260507101052 | 64 | 19 | 4.0 | 10.0 | 0.00 | 0.00 | 0.00 | 85 | 1015.0 |
| 20260507100555 | 64 | 46 | 3.0 | 8.0 | 0.00 | 0.00 | 0.00 | 85 | 1015.1 |
| 20260507100058 | 64 | 318 | 3.0 | 10.0 | 0.00 | 0.00 | 0.00 | 85 | 1014.9 |
| 20260507095552 | 64 | 45 | 2.0 | 10.0 | 0.00 | 0.00 | 0.00 | 85 | 1015.0 |
| 20260507095052 | 64 | 19 | 2.0 | 8.0 | 0.00 | 0.00 | 0.00 | 85 | 1014.9 |
| 20260507094559 | 64 | 335 | 3.0 | 8.0 | 0.00 | 0.00 | 0.00 | 85 | 1014.5 |
| 20260507094054 | 64 | 330 | 1.0 | 7.0 | 0.00 | 0.00 | 0.00 | 85 | 1014.6 |
| 20260507093553 | 64 | 62 | 1.0 | 8.0 | 0.00 | 0.00 | 0.00 | 85 | 1014.7 |
| 20260507093052 | 64 | 24 | 3.0 | 8.0 | 0.00 | 0.00 | 0.00 | 85 | 1014.6 |
| 20260507092554 | 64 | 65 | 2.0 | 8.0 | 0.00 | 0.00 | 0.00 | 85 | 1014.5 |
| 20260507092054 | 64 | 30 | 2.0 | 6.0 | 0.00 | 0.00 | 0.00 | 85 | 1014.4 |
| 20260507091554 | 64 | 32 | 2.0 | 7.0 | 0.00 | 0.00 | 0.00 | 85 | 1014.4 |
| 20260507091052 | 64 | 5 | 3.0 | 7.0 | 0.00 | 0.00 | 0.00 | 85 | 1014.4 |
| 20260507090552 | 64 | 17 | 2.0 | 11.0 | 0.00 | 0.00 | 0.00 | 85 | 1014.4 |
| 20260507090054 | 64 | 64 | 2.0 | 11.0 | 0.00 | 0.00 | 0.00 | 85 | 1014.3 |
| 20260507085551 | 64 | 78 | 2.0 | 7.0 | 0.00 | 0.00 | 0.00 | 85 | 1014.3 |
| 20260507085052 | 64 | 35 | 2.0 | 7.0 | 0.00 | 0.00 | 0.00 | 85 | 1014.1 |
| 20260507084559 | 64 | 0 | 1.0 | 9.0 | 0.00 | 0.00 | 0.00 | 85 | 1014.1 |
| 20260507084052 | 64 | 16 | 4.0 | 10.0 | 0.00 | 0.00 | 0.00 | 85 | 1014.0 |
| 20260507083551 | 64 | 21 | 3.0 | 12.0 | 0.00 | 0.00 | 0.00 | 85 | 1014.0 |
| 20260507083057 | 64 | 5 | 4.0 | 12.0 | 0.00 | 0.00 | 0.00 | 85 | 1013.9 |
| 20260507082552 | 64 | 61 | 3.0 | 10.0 | 0.00 | 0.00 | 0.00 | 85 | 1014.2 |
| 20260507082052 | 64 | 0 | 2.0 | 10.0 | 0.00 | 0.00 | 0.00 | 85 | 1014.1 |
| 20260507081555 | 64 | 66 | 4.0 | 9.0 | 0.00 | 0.00 | 0.00 | 84 | 1014.2 |
| 20260507081055 | 64 | 37 | 4.0 | 14.0 | 0.00 | 0.00 | 0.00 | 84 | 1014.3 |
| 20260507080552 | 64 | 48 | 5.0 | 14.0 | 0.00 | 0.00 | 0.00 | 84 | 1014.1 |
| 20260507080056 | 64 | 61 | 3.0 | 12.0 | 0.00 | 0.00 | 0.00 | 84 | 1014.2 |
| 20260507075554 | 64 | 349 | 6.0 | 12.0 | 0.00 | 0.00 | 0.00 | 84 | 1014.5 |
| 20260507075052 | 64 | 49 | 3.0 | 11.0 | 0.00 | 0.00 | 0.00 | 84 | 1014.3 |
| 20260507074557 | 64 | 35 | 6.0 | 11.0 | 0.00 | 0.00 | 0.00 | 84 | 1014.4 |
| 20260507074051 | 64 | 52 | 2.0 | 9.0 | 0.00 | 0.00 | 0.00 | 84 | 1014.5 |
| 20260507073551 | 64 | 47 | 4.0 | 11.0 | 0.00 | 0.00 | 0.00 | 84 | 1014.6 |
| 20260507073102 | 64 | 67 | 5.0 | 11.0 | 0.00 | 0.00 | 0.00 | 84 | 1014.6 |
| 20260507072552 | 64 | 52 | 2.0 | 10.0 | 0.00 | 0.00 | 0.00 | 84 | 1014.5 |
| 20260507072053 | 64 | 5 | 2.0 | 10.0 | 0.00 | 0.00 | 0.00 | 84 | 1014.5 |
| 20260507071556 | 64 | 5 | 3.0 | 10.0 | 0.00 | 0.00 | 0.00 | 84 | 1014.6 |
| 20260507071054 | 64 | 343 | 2.0 | 11.0 | 0.00 | 0.00 | 0.00 | 84 | 1014.6 |
| 20260507070552 | 64 | 63 | 3.0 | 11.0 | 0.00 | 0.00 | 0.00 | 84 | 1014.4 |
| 20260507070104 | 64 | 58 | 3.0 | 10.0 | 0.00 | 0.00 | 0.00 | 84 | 1014.6 |
| 20260507065556 | 64 | 46 | 3.0 | 11.0 | 0.00 | 0.00 | 0.00 | 83 | 1014.5 |
| 20260507065052 | 65 | 26 | 4.0 | 11.0 | 0.00 | 0.00 | 0.00 | 83 | 1014.5 |
| 20260507064559 | 65 | 66 | 3.0 | 11.0 | 0.00 | 0.00 | 0.00 | 83 | 1014.7 |
| 20260507064052 | 65 | 35 | 6.0 | 13.0 | 0.00 | 0.00 | 0.00 | 83 | 1014.8 |
| 20260507063551 | 65 | 63 | 5.0 | 13.0 | 0.00 | 0.00 | 0.00 | 83 | 1014.5 |
| 20260507063054 | 65 | 22 | 4.0 | 11.0 | 0.00 | 0.00 | 0.00 | 83 | 1014.6 |
| 20260507062552 | 65 | 17 | 5.0 | 15.0 | 0.00 | 0.00 | 0.00 | 83 | 1014.8 |
| 20260507062052 | 65 | 27 | 5.0 | 16.0 | 0.00 | 0.00 | 0.00 | 83 | 1014.7 |
| 20260507061557 | 65 | 27 | 8.0 | 16.0 | 0.00 | 0.00 | 0.00 | 83 | 1014.6 |
| 20260507061051 | 65 | 84 | 5.0 | 13.0 | 0.00 | 0.00 | 0.00 | 83 | 1014.9 |
| 20260507060553 | 65 | 118 | 4.0 | 12.0 | 0.00 | 0.00 | 0.00 | 83 | 1014.8 |
| 20260507060100 | 65 | 64 | 4.0 | 12.0 | 0.00 | 0.00 | 0.00 | 83 | 1014.8 |
| 20260507055556 | 65 | 349 | 4.0 | 12.0 | 0.00 | 0.00 | 0.00 | 83 | 1014.6 |
| 20260507055054 | 65 | 11 | 4.0 | 12.0 | 0.00 | 0.00 | 0.00 | 83 | 1014.6 |
| 20260507054553 | 65 | 338 | 3.0 | 12.0 | 0.00 | 0.00 | 0.00 | 83 | 1014.7 |
| 20260507054052 | 65 | 67 | 4.0 | 13.0 | 0.00 | 0.00 | 0.00 | 83 | 1014.6 |
| 20260507053552 | 65 | 313 | 5.0 | 13.0 | 0.00 | 0.00 | 0.00 | 83 | 1014.6 |
| 20260507053115 | 65 | 25 | 4.0 | 13.0 | 0.00 | 0.00 | 0.00 | 83 | 1014.4 |
| 20260507052551 | 65 | 38 | 3.0 | 13.0 | 0.00 | 0.00 | 0.00 | 83 | 1014.4 |
| 20260507052052 | 65 | 50 | 4.0 | 11.0 | 0.00 | 0.00 | 0.00 | 83 | 1014.5 |
| 20260507051558 | 65 | 13 | 4.0 | 11.0 | 0.00 | 0.00 | 0.00 | 83 | 1014.5 |
| 20260507051050 | 65 | 47 | 2.0 | 12.0 | 0.00 | 0.00 | 0.00 | 83 | 1014.2 |
| 20260507050552 | 65 | 62 | 4.0 | 14.0 | 0.00 | 0.00 | 0.00 | 83 | 1014.3 |
| 20260507050056 | 65 | 5 | 4.0 | 16.0 | 0.00 | 0.00 | 0.00 | 83 | 1014.1 |
| 20260507045552 | 65 | 355 | 4.0 | 16.0 | 0.00 | 0.00 | 0.00 | 83 | 1014.1 |
| 20260507045052 | 65 | 21 | 3.0 | 11.0 | 0.00 | 0.00 | 0.00 | 83 | 1013.9 |
| 20260507044613 | 65 | 27 | 3.0 | 11.0 | 0.00 | 0.00 | 0.00 | 83 | 1014.1 |
| 20260507044053 | 65 | 347 | 4.0 | 13.0 | 0.00 | 0.00 | 0.00 | 83 | 1014.1 |
| 20260507043551 | 65 | 47 | 3.0 | 13.0 | 0.00 | 0.00 | 0.00 | 83 | 1014.1 |
| 20260507043053 | 65 | 69 | 4.0 | 13.0 | 0.00 | 0.00 | 0.00 | 83 | 1014.2 |
| 20260507042552 | 65 | 79 | 4.0 | 13.0 | 0.00 | 0.00 | 0.00 | 83 | 1014.1 |
| 20260507042052 | 66 | 90 | 3.0 | 11.0 | 0.00 | 0.00 | 0.00 | 83 | 1014.0 |
| 20260507041554 | 66 | 286 | 4.0 | 11.0 | 0.00 | 0.00 | 0.00 | 83 | 1014.1 |
| 20260507041052 | 66 | 18 | 2.0 | 9.0 | 0.00 | 0.00 | 0.00 | 83 | 1014.0 |
| 20260507040553 | 66 | 36 | 2.0 | 9.0 | 0.00 | 0.00 | 0.00 | 83 | 1014.1 |
| 20260507040056 | 66 | 39 | 2.0 | 9.0 | 0.00 | 0.00 | 0.00 | 83 | 1014.2 |
| 20260507035552 | 66 | 17 | 4.0 | 9.0 | 0.00 | 0.00 | 0.00 | 83 | 1014.1 |
| 20260507035052 | 66 | 57 | 2.0 | 11.0 | 0.00 | 0.00 | 0.00 | 83 | 1014.1 |
| 20260507034601 | 66 | 288 | 3.0 | 11.0 | 0.00 | 0.00 | 0.00 | 83 | 1014.2 |
| 20260507034051 | 66 | 93 | 4.0 | 11.0 | 0.00 | 0.00 | 0.00 | 83 | 1014.3 |
| 20260507033552 | 66 | 42 | 3.0 | 9.0 | 0.00 | 0.00 | 0.00 | 83 | 1014.2 |
| 20260507033105 | 66 | 351 | 2.0 | 8.0 | 0.00 | 0.00 | 0.00 | 83 | 1014.2 |
| 20260507032552 | 66 | 321 | 2.0 | 10.0 | 0.00 | 0.00 | 0.00 | 83 | 1014.0 |
| 20260507032053 | 66 | 45 | 3.0 | 10.0 | 0.00 | 0.00 | 0.00 | 83 | 1013.8 |
| 20260507031602 | 66 | 60 | 4.0 | 10.0 | 0.00 | 0.00 | 0.00 | 83 | 1013.6 |
| 20260507031052 | 66 | 321 | 3.0 | 15.0 | 0.00 | 0.00 | 0.00 | 83 | 1013.7 |
| 20260507030551 | 66 | 319 | 4.0 | 15.0 | 0.00 | 0.00 | 0.00 | 82 | 1013.6 |
| 20260507030109 | 66 | 25 | 6.0 | 15.0 | 0.00 | 0.00 | 0.00 | 82 | 1013.5 |
| 20260507025551 | 66 | 337 | 3.0 | 10.0 | 0.00 | 0.00 | 0.00 | 82 | 1013.5 |
| 20260507025052 | 66 | 38 | 3.0 | 10.0 | 0.00 | 0.00 | 0.00 | 82 | 1013.6 |
| 20260507024613 | 66 | 22 | 3.0 | 11.0 | 0.00 | 0.00 | 0.00 | 82 | 1013.7 |
| 20260507024052 | 66 | 56 | 4.0 | 16.0 | 0.00 | 0.00 | 0.00 | 82 | 1013.4 |
| 20260507023552 | 67 | 5 | 4.0 | 16.0 | 0.00 | 0.00 | 0.00 | 81 | 1013.3 |
| 20260507023054 | 67 | 58 | 4.0 | 12.0 | 0.00 | 0.00 | 0.00 | 81 | 1013.4 |
| 20260507022552 | 67 | 322 | 3.0 | 12.0 | 0.00 | 0.00 | 0.00 | 82 | 1013.4 |
| 20260507022052 | 67 | 55 | 4.0 | 15.0 | 0.00 | 0.00 | 0.00 | 81 | 1013.2 |
| 20260507021558 | 67 | 9 | 4.0 | 15.0 | 0.00 | 0.00 | 0.00 | 81 | 1012.9 |
| 20260507021055 | 67 | 348 | 6.0 | 15.0 | 0.00 | 0.00 | 0.00 | 81 | 1012.8 |
| 20260507020552 | 67 | 350 | 3.0 | 9.0 | 0.00 | 0.00 | 0.00 | 81 | 1012.7 |
| 20260507020101 | 67 | 0 | 3.0 | 9.0 | 0.00 | 0.00 | 0.00 | 81 | 1012.5 |
| 20260507015551 | 68 | 320 | 2.0 | 9.0 | 0.00 | 0.00 | 0.00 | 82 | 1012.2 |
| 20260507015055 | 68 | 301 | 3.0 | 9.0 | 0.00 | 0.00 | 0.00 | 81 | 1012.1 |
| 20260507014559 | 68 | 33 | 3.0 | 11.0 | 0.00 | 0.00 | 0.00 | 81 | 1011.9 |
| 20260507014052 | 68 | 355 | 3.0 | 11.0 | 0.00 | 0.00 | 0.00 | 81 | 1011.7 |
| 20260507013553 | 68 | 38 | 3.0 | 11.0 | 0.00 | 0.00 | 0.00 | 80 | 1011.7 |
| 20260507013100 | 68 | 69 | 3.0 | 9.0 | 0.00 | 0.00 | 0.00 | 80 | 1011.7 |
| 20260507012551 | 69 | 344 | 2.0 | 14.0 | 0.00 | 0.00 | 0.00 | 80 | 1011.6 |
| 20260507012051 | 69 | 0 | 5.0 | 14.0 | 0.00 | 0.00 | 0.00 | 79 | 1011.4 |
| 20260507011557 | 69 | 126 | 4.0 | 13.0 | 0.00 | 0.00 | 0.00 | 79 | 1011.3 |
| 20260507011052 | 69 | 32 | 4.0 | 13.0 | 0.00 | 0.00 | 0.00 | 79 | 1011.2 |
| 20260507010552 | 70 | 53 | 6.0 | 13.0 | 0.00 | 0.00 | 0.00 | 79 | 1011.3 |
| 20260507010052 | 70 | 355 | 3.0 | 11.0 | 0.00 | 0.00 | 0.00 | 79 | 1011.3 |
| 20260507005551 | 70 | 344 | 3.0 | 10.0 | 0.00 | 0.00 | 0.00 | 79 | 1011.3 |
| 20260507005053 | 70 | 315 | 2.0 | 11.0 | 0.00 | 0.00 | 0.00 | 79 | 1011.3 |
| 20260507004554 | 71 | 36 | 4.0 | 11.0 | 0.00 | 0.00 | 0.00 | 79 | 1011.1 |
| 20260507004052 | 71 | 290 | 2.0 | 10.0 | 0.00 | 0.00 | 0.00 | 79 | 1011.0 |
| 20260507003551 | 71 | 298 | 3.0 | 11.0 | 0.00 | 0.00 | 0.00 | 79 | 1011.0 |
| 20260507003100 | 71 | 25 | 4.0 | 11.0 | 0.00 | 0.00 | 0.00 | 79 | 1010.9 |
| 20260507002554 | 71 | 333 | 4.0 | 11.0 | 0.00 | 0.00 | 0.00 | 79 | 1011.0 |
| 20260507002052 | 72 | 63 | 4.0 | 13.0 | 0.00 | 0.00 | 0.00 | 79 | 1010.9 |
| 20260507001552 | 72 | 24 | 4.0 | 14.0 | 0.00 | 0.00 | 0.00 | 79 | 1010.9 |
| 20260507001054 | 72 | 38 | 5.0 | 14.0 | 0.00 | 0.00 | 0.00 | 78 | 1010.9 |
| 20260507000554 | 72 | 271 | 3.0 | 14.0 | 0.00 | 0.00 | 0.00 | 78 | 1010.8 |
| 20260507000053 | 72 | 61 | 4.0 | 14.0 | 0.00 | 0.00 | 0.00 | 79 | 1010.7 |
| 20260506235551 | 72 | 14 | 3.0 | 15.0 | 0.00 | 0.00 | 0.00 | 79 | 1010.6 |
| 20260506235051 | 73 | 40 | 4.0 | 15.0 | 0.00 | 0.00 | 0.00 | 78 | 1010.4 |
| 20260506234606 | 73 | 302 | 6.0 | 15.0 | 0.00 | 0.00 | 0.00 | 78 | 1010.4 |
| 20260506234052 | 73 | 327 | 4.0 | 12.0 | 0.00 | 0.00 | 0.00 | 78 | 1010.2 |
| 20260506233553 | 73 | 73 | 5.0 | 12.0 | 0.00 | 0.00 | 0.00 | 78 | 1010.3 |
| 20260506233058 | 73 | 321 | 4.0 | 12.0 | 0.00 | 0.00 | 0.00 | 78 | 1010.1 |
| 20260506232552 | 74 | 340 | 3.0 | 12.0 | 0.00 | 0.00 | 0.00 | 78 | 1010.1 |
| 20260506232058 | 74 | 12 | 4.0 | 18.0 | 0.00 | 0.00 | 0.00 | 78 | 1010.0 |
| 20260506231558 | 74 | 332 | 4.0 | 18.0 | 0.00 | 0.00 | 0.00 | 78 | 1010.1 |
| 20260506231052 | 74 | 42 | 6.0 | 15.0 | 0.00 | 0.00 | 0.00 | 78 | 1010.2 |
| 20260506230552 | 75 | 5 | 5.0 | 15.0 | 0.00 | 0.00 | 0.00 | 77 | 1010.0 |
| 20260506225552 | 76 | 130 | 5.0 | 15.0 | 0.00 | 0.00 | 0.00 | 76 | 1009.9 |